STARLINK-2133 (47406 NORAD) Tracking and Keplerian Element Data

This shows tracking and keplerian element data for the satellite.

Feedback or suggestion? Click here.




ElementValue
Catalog47406
NameSTARLINK-2133
Epoch Orbit1436
Epoch Day106.25002315
Epoch Year2021
RAAN150.744
Inclination53.053
Eccentricity0.0004251
Argument of Perigee6.0521
Mean Anonmoly68.7645
Mean Motion15.62753747
Decay Rate-0.00014755
L11 47406U 21005BK 21106.25002315 -.00014755 00000-0 -15548-3 0 9997
L22 47406 53.0530 150.7440 0004251 6.0521 68.7645 15.62753747 14363

Live tracking and technical data element details for STARLINK-2133 (NORAD 47406). STARLINK-2133 can be tracked NOW for your location showing map with azimuth and elevation plus other details from your city location.

Track the satellite on the map from your city or location and see movement details for azimuth, elevation, latitude, longitude, range, height, and movement on the map or in text.







IsCatalogInMostPopularTable: catalog: 47406, numindb: 15
Update: records affected: 1



GetName: 47406 STARLINK-2133

Hit Count: updated at: Fri, 16 Apr 2021 11:36:24 GMT